Location: Bosdarros
(43.2167°N, 0.3667°W)
Time: 07:30:14
(UTC+00:00)

Cosmos-2242 - Pass Details

Date: 22 April 2021
Orbit: 589 x 618 km, 82.5° (Epoch: 07 May)

Event Time Altitude Azimuth Distance (km) Brightness Sun altitude
Exits shadow 21:12:34 19° 215° (SW) 1,440 4.8 -22.5°
Maximum altitude 21:15:21 46° 282° (WNW) 812 3.9 -22.8°
Drops below altitude 10° 21:19:31 10° 356° (N) 1,951 6.3 -23.3°
Sets 21:21:48 0° 3° (N) 2,853 7.1 -23.6°
